Flag for USA

Past Weather in 45°23'17"N, 122°44'38"W, USA — Yesterday and Last 2 Weeks

Now
61 °F

More clouds than sun.


Feels Like: 61 °F
Forecast: 73 / 57 °F
Wind: 6 mph from Northwest

Location: Portland International Airport

Current Time: Jul 8, 2020 at 8:34:17 am

Latest Report: Jul 8, 2020 at 7:53 am


Visibility: 10 mi

Pressure: 30.13 "Hg

Humidity: 75%

Dew Point: 53 °F

Location of 45°23'17"N, 122°44'38"WLocation

Past Weather in 45°23'17"N, 122°44'38"W — Graph

°F

45°23'17"N, 122°44'38"W Temperature Yesterday

Maximum temperature yesterday: 67 °F (at 2:53 pm)
Minimum temperature yesterday: 57 °F (at 7:38 am)
Average temperature yesterday: 62 °F

High & Low Weather Summary for the Past Weeks

 TemperatureHumidityPressure
High91 °F (Jun 23, 2:53 pm)87% (Jul 7, 7:38 am)30.21 "Hg (Jul 7, 7:38 am)
Low54 °F (Jun 29, 4:53 am)28% (Jun 23, 2:53 pm)29.85 "Hg (Jun 23, 6:53 pm)
Average65 °F64%30.04 "Hg
* Reported Jun 23 6:53 am — Jul 8 6:53 am, 45°23'17"N, 122°44'38"W. Weather by CustomWeather, © 2020

Note: Actual official high and low records may vary slightly from our data, if they occured in-between our weather recording intervals... More about our weather records

45°23'17"N, 122°44'38"W Weather History for the Previous 24 Hours

Scroll right to see more
 ConditionsComfort  
Time TempWeatherWind HumidityBarometerVisibility
6:53 am
Wed, Jul 8
60 °FMostly cloudy.3 mph80%30.13 "Hg10 mi
6:19 am59 °FPartly sunny.No wind81%30.13 "Hg10 mi
5:53 am59 °FPartly sunny.No wind81%30.13 "Hg10 mi
5:15 am60 °FPartly cloudy.No wind78%30.13 "Hg10 mi
4:53 am59 °FPassing clouds.3 mph81%30.12 "Hg10 mi
3:53 am59 °FPartly cloudy.No wind81%30.12 "Hg10 mi
2:53 am60 °FMostly cloudy.No wind78%30.12 "Hg10 mi
1:53 am60 °FOvercast.3 mph78%30.13 "Hg10 mi
12:53 am61 °FOvercast.7 mph78%30.13 "Hg10 mi
11:53 pm
Tue, Jul 7
61 °FPassing clouds.5 mph81%30.13 "Hg10 mi
10:53 pm62 °FPassing clouds.6 mph78%30.13 "Hg10 mi
9:53 pm63 °FPassing clouds.5 mph78%30.12 "Hg10 mi
8:53 pm65 °FScattered clouds.5 mph73%30.11 "Hg10 mi
7:53 pm66 °FBroken clouds.3 mph73%30.10 "Hg10 mi
6:53 pm66 °FLight rain. Partly sunny.6 mph70%30.09 "Hg10 mi
5:53 pm67 °FLight rain. Broken clouds.No wind71%30.09 "Hg10 mi
4:53 pm66 °FBroken clouds.6 mph70%30.10 "Hg10 mi
3:53 pm65 °FCloudy.6 mph76%30.11 "Hg10 mi
2:53 pm67 °FMostly cloudy.5 mph61%30.11 "Hg10 mi
1:53 pm65 °FLight rain. Mostly cloudy.No wind66%30.12 "Hg10 mi
12:53 pm65 °FOvercast.8 mph63%30.12 "Hg10 mi
11:53 am64 °FMostly cloudy.6 mph65%30.12 "Hg10 mi
11:24 am63 °FMostly cloudy.10 mph70%30.12 "Hg10 mi
10:53 am60 °FLight rain. Cloudy.3 mph80%30.12 "Hg10 mi
10:33 am59 °FMore clouds than sun.5 mph84%30.13 "Hg10 mi
9:53 am58 °FLight rain. Fog.3 mph87%30.13 "Hg5 mi
8:53 am58 °FMostly cloudy.8 mph81%30.12 "Hg10 mi
Weather by CustomWeather, © 2020

See weather overview